This demonstration page uses our WeatherBlox Daily Observations layout. Learn more.

Hourly Observations for June 30, 2019

Temp ( °F °C ) Dew Point ( °F °C ) Humidity (%) Winds ( mph kmh ) Pressure ( in mb ) Visibility ( mi km ) Precip ( " mm )
12:15 am 00:15 Clear 77 24.8 67 19.3 72 72 S 6 9 29.94 1014 10 16.09344 0 0
12:35 am 00:35 Clear 76 24.5 67 19.2 72 72 S 7 11 29.94 1014 10 16.09344 0 0
12:55 am 00:55 Clear 76 24.2 67 19.2 74 74 SSE 7 11 29.94 1014 10 16.09344 0 0
1:15 am 01:15 Clear 75 24 66 19.1 74 74 S 7 11 29.94 1014 10 16.09344 0 0
1:35 am 01:35 Clear 75 23.7 66 19 75 75 S 8 13 29.94 1014 10 16.09344 0 0
1:55 am 01:55 Clear 74 23.3 66 19 77 77 S 7 11 29.97 1015 10 16.09344 0 0
2:15 am 02:15 Clear 74 23.5 66 18.7 75 75 S 8 13 29.97 1015 10 16.09344 0 0
2:35 am 02:35 Clear 74 23.2 65 18.5 75 75 S 5 7 29.97 1015 10 16.09344 0 0
2:55 am 02:55 Clear 73 22.5 65 18.5 78 78 S 3 6 29.97 1015 10 16.09344 0 0
3:15 am 03:15 Clear 71 21.7 65 18.4 82 82 S 3 6 29.97 1015 10 16.09344 0 0
3:35 am 03:35 Clear 71 21.7 65 18.1 80 80 S 7 11 29.97 1015 10 16.09344 0 0
3:55 am 03:55 Clear 72 22.2 64 18 77 77 S 8 13 29.97 1015 10 16.09344 0 0
4:15 am 04:15 Clear 72 22 64 18 78 78 S 6 9 29.97 1015 10 16.09344 0 0
4:35 am 04:35 Clear 72 22 64 18 78 78 S 7 11 29.97 1015 10 16.09344 0 0
4:55 am 04:55 Clear 70 21.3 65 18.1 82 82 S 7 11 29.97 1015 10 16.09344 0 0
5:15 am 05:15 Clear 70 21.2 65 18.5 85 85 S 7 11 29.97 1015 7 11.265408 0 0
5:35 am 05:35 Clear 71 21.5 66 18.7 84 84 S 7 11 29.97 1015 10 16.09344 0 0
5:55 am 05:55 Clear 70 21.2 66 19.1 88 88 S 7 11 29.97 1015 10 16.09344 0 0
6:15 am 06:15 Sunny 70 21 67 19.3 90 90 S 6 9 29.97 1015 10 16.09344 0 0
6:35 am 06:35 Sunny 70 21.3 67 19.7 91 91 S 7 11 29.97 1015 10 16.09344 0 0
6:55 am 06:55 Sunny 71 21.5 68 19.8 90 90 S 8 13 29.97 1015 10 16.09344 0 0
7:15 am 07:15 Sunny 71 21.7 68 20 90 90 SSW 8 13 29.97 1015 10 16.09344 0 0
7:35 am 07:35 Sunny 73 23 69 20.5 86 86 SSW 9 15 29.97 1015 10 16.09344 0 0
7:55 am 07:55 Sunny 74 23.4 69 20.6 84 84 SSW 8 13 29.97 1015 10 16.09344 0 0
8:15 am 08:15 Sunny 75 24 69 20.6 81 81 S 8 13 29.94 1014 10 16.09344 0 0
8:35 am 08:35 Sunny 76 24.6 69 20.7 79 79 SSW 9 15 29.94 1014 10 16.09344 0 0
8:55 am 08:55 Sunny 78 25.6 70 20.9 75 75 SSW 10 17 29.94 1014 10 16.09344 0 0
9:15 am 09:15 Sunny 79 26 70 21 74 74 SSW 9 15 29.94 1014 10 16.09344 0 0
9:35 am 09:35 Sunny 80 26.7 70 21 71 71 S 7 11 29.94 1014 10 16.09344 0 0
9:55 am 09:55 Sunny 82 27.7 69 20.8 66 66 S 8 13 29.91 1013 10 16.09344 0 0
10:15 am 10:15 Sunny 83 28.5 70 21.1 64 64 S 8 13 29.91 1013 10 16.09344 0 0
10:35 am 10:35 Sunny 84 29.1 70 20.9 61 61 S 9 15 29.91 1013 10 16.09344 0 0
10:55 am 10:55 Sunny 86 29.9 69 20.7 58 58 SSW 8 13 29.91 1013 10 16.09344 0 0
11:15 am 11:15 Sunny 86 30.1 69 20.6 57 57 SSW 9 15 29.91 1013 10 16.09344 0 0
11:35 am 11:35 Sunny 88 31 70 20.9 55 55 S 8 13 29.85 1011 10 16.09344 0 0
11:55 am 11:55 Sunny 88 31.2 70 20.9 54 54 S 12 19 29.85 1011 10 16.09344 0 0
12:15 pm 12:15 Sunny 89 31.7 70 21 53 53 S 13 20 29.85 1011 10 16.09344 0 0
12:35 pm 12:35 Sunny 89 31.8 71 21.6 55 55 S 12 19 29.85 1011 10 16.09344 0 0
12:55 pm 12:55 Sunny 90 32.4 69 20.7 50 50 SSE 13 20 29.85 1011 10 16.09344 0 0
1:15 pm 13:15 Sunny 91 32.6 68 19.9 47 47 S 14 22 29.85 1011 10 16.09344 0 0
1:35 pm 13:35 Sunny 91 33 67 19.7 45 45 SSE 15 24 29.85 1011 10 16.09344 0 0
1:55 pm 13:55 Sunny 92 33.1 72 22.4 53 53 SSE 15 24 29.85 1011 10 16.09344 0 0
2:15 pm 14:15 Sunny 92 33.1 71 21.8 51 51 SSE 15 24 29.85 1011 10 16.09344 0 0
2:35 pm 14:35 Sunny 92 33.5 69 20.8 47 47 S 15 24 29.85 1011 10 16.09344 0 0
2:55 pm 14:55 Sunny 93 33.8 69 20.4 45 45 SSE 15 24 29.83 1010 10 16.09344 0 0
3:15 pm 15:15 Sunny 93 34 65 18.6 40 40 S 14 22 29.83 1010 10 16.09344 0 0
3:35 pm 15:35 Sunny 94 34.2 65 18.5 39 39 SSE 14 22 29.83 1010 10 16.09344 0 0
3:55 pm 15:55 Sunny 93 34.1 65 18.5 40 40 SSE 16 26 29.83 1010 10 16.09344 0 0
4:15 pm 16:15 Sunny 94 34.2 65 18.3 39 39 S 17 28 29.83 1010 10 16.09344 0 0
4:35 pm 16:35 Sunny 94 34.3 64 17.6 37 37 S 16 26 29.83 1010 10 16.09344 0 0
4:55 pm 16:55 Sunny 94 34.5 61 16.3 34 34 S 15 24 29.8 1009 10 16.09344 0 0
5:15 pm 17:15 Sunny 94 34.3 63 17.2 36 36 S 14 22 29.83 1010 10 16.09344 0 0
5:35 pm 17:35 Sunny 93 34.1 62 16.5 35 35 S 13 20 29.8 1009 10 16.09344 0 0
5:55 pm 17:55 Sunny 93 34 63 17.3 37 37 SSE 13 20 29.8 1009 10 16.09344 0 0
6:15 pm 18:15 Sunny 93 33.7 64 17.8 39 39 SSE 10 17 29.8 1009 10 16.09344 0 0
6:35 pm 18:35 Sunny 92 33.3 64 17.7 39 39 SSE 13 20 29.8 1009 10 16.09344 0 0
7:15 pm 19:15 Sunny 91 32.5 65 18.5 43 43 SSE 13 20 29.77 1008 10 16.09344 0 0
7:35 pm 19:35 Sunny 90 32 65 18.2 44 44 SSE 10 17 29.77 1008 10 16.09344 0 0
7:55 pm 19:55 Sunny 88 31.1 65 18.1 46 46 S 8 13 29.77 1008 10 16.09344 0 0
8:15 pm 20:15 Sunny 86 30.1 66 18.8 51 51 SSE 6 9 29.83 1010 10 16.09344 0 0
8:35 pm 20:35 Sunny 83 28.1 67 19.5 60 60 SSE 5 7 29.83 1010 10 16.09344 0 0
8:55 pm 20:55 Sunny 81 27.2 67 19.5 63 63 SSE 9 15 29.83 1010 10 16.09344 0 0
9:15 pm 21:15 Clear 80 26.7 66 19.1 63 63 SSE 8 13 29.8 1009 10 16.09344 0 0
9:35 pm 21:35 Clear 80 26.5 66 19.1 64 64 SSE 8 13 29.83 1010 10 16.09344 0 0
9:55 pm 21:55 Clear 79 26.1 65 18.5 63 63 SSE 9 15 29.85 1011 10 16.09344 0 0
10:15 pm 22:15 Clear 78 25.6 65 18.2 64 64 SSE 8 13 29.88 1012 10 16.09344 0 0
10:35 pm 22:35 Clear 78 25.6 64 17.8 62 62 SSE 9 15 29.88 1012 10 16.09344 0 0
10:55 pm 22:55 Clear 77 25.1 64 17.5 63 63 SSE 8 13 29.88 1012 10 16.09344 0 0
11:15 pm 23:15 Clear 77 24.8 64 17.6 64 64 S 9 15 29.91 1013 10 16.09344 0 0
11:35 pm 23:35 Clear 77 25 64 17.8 64 64 SSE 10 17 29.91 1013 10 16.09344 0 0
11:55 pm 23:55 Clear 76 24.5 64 17.9 67 67 SSE 9 15 29.91 1013 10 16.09344 0 0

Powered by AerisWeather